EW8682 Weather Reports


Display with metric or nautical units.
time (UTC)temp
F
wind
direction
speed
MPH
gust
MPH
rain 1hr
in
rain 24hr
in
rain mn
in
humidity
%
barometer
mb
20260508003058 80 184 3.0 7.0 0.00 0.00 0.00 46 1005.0
20260508001545 80 227 2.0 6.0 0.00 0.00 0.00 46 1005.0
20260508000046 81 174 2.0 7.0 0.00 0.00 0.00 44 1005.0
20260507234543 81 175 3.0 6.0 0.00 0.00 0.00 44 1005.2
20260507233042 82 196 2.0 8.0 0.00 0.00 0.00 43 1005.1
20260507231542 82 167 3.0 7.0 0.00 0.00 0.00 43 1005.1
20260507230042 82 176 2.0 7.0 0.00 0.00 0.00 44 1005.2
20260507224557 82 179 4.0 7.0 0.00 0.00 0.00 44 1005.2
20260507223036 82 195 3.0 8.0 0.00 0.00 0.00 43 1005.4
20260507221535 82 217 3.0 9.0 0.00 0.00 0.00 43 1005.5
20260507220033 82 222 4.0 9.0 0.00 0.00 0.00 42 1005.6
20260507214531 82 186 3.0 9.0 0.00 0.00 0.00 44 1005.8
20260507213028 82 186 4.0 8.0 0.00 0.00 0.00 44 1006.0
20260507211527 82 188 3.0 9.0 0.00 0.00 0.00 43 1006.1
20260507210030 82 227 3.0 6.0 0.00 0.00 0.00 42 1006.2
20260507204523 82 186 1.0 6.0 0.00 0.00 0.00 42 1006.4
20260507203019 82 193 2.0 8.0 0.00 0.00 0.00 41 1006.5
20260507201520 81 184 2.0 7.0 0.00 0.00 0.00 41 1006.7
20260507200014 81 194 2.0 6.0 0.00 0.00 0.00 43 1006.8
20260507194512 80 202 2.0 6.0 0.00 0.00 0.00 43 1007.1
20260507193006 79 196 2.0 6.0 0.00 0.00 0.00 44 1007.2
20260507191503 79 224 3.0 7.0 0.00 0.00 0.00 44 1007.4
20260507190100 78 180 2.0 6.0 0.00 0.00 0.00 46 1007.5
20260507184556 77 223 3.0 6.0 0.00 0.00 0.00 46 1007.6
20260507183052 76 197 2.0 6.0 0.00 0.00 0.00 47 1007.8
20260507181549 75 176 0.0 5.0 0.00 0.00 0.00 49 1007.8
20260507180047 74 191 2.0 5.0 0.00 0.00 0.00 50 1007.9
20260507174541 72 207 1.0 5.0 0.00 0.00 0.00 52 1007.9
20260507173036 71 202 3.0 6.0 0.00 0.00 0.00 55 1008.0
20260507171530 70 207 1.0 4.0 0.00 0.00 0.00 57 1008.1
20260507170028 69 198 1.0 5.0 0.00 0.00 0.00 58 1008.1
20260507164525 68 195 2.0 4.0 0.00 0.00 0.00 59 1008.1
20260507163025 67 198 0.0 4.0 0.00 0.00 0.00 61 1008.3
20260507161519 66 209 1.0 4.0 0.00 0.00 0.00 61 1008.3
20260507160021 66 187 1.0 5.0 0.00 0.00 0.00 61 1008.3
20260507154513 64 191 0.0 5.0 0.00 0.00 0.00 65 1008.3
20260507153009 62 105 0.0 0.0 0.00 0.00 0.00 66 1008.4
20260507151505 61 101 0.0 0.0 0.00 0.00 0.00 71 1008.4
20260507150002 59 93 0.0 0.0 0.00 0.00 0.00 75 1008.4
20260507144601 57 50 0.0 0.0 0.00 0.00 0.00 82 1008.3
20260507143103 54 47 0.0 0.0 0.00 0.00 0.00 85 1008.4
20260507141558 53 47 0.0 0.0 0.00 0.00 0.00 85 1008.3
20260507140108 52 47 0.0 0.0 0.00 0.00 0.00 84 1008.2
20260507134554 52 47 0.0 0.0 0.00 0.00 0.00 84 1008.1
20260507133052 52 47 0.0 0.0 0.00 0.00 0.00 83 1007.9
20260507131550 53 47 0.0 0.0 0.00 0.00 0.00 81 1008.0
20260507130047 53 48 0.0 0.0 0.00 0.00 0.00 79 1007.9
20260507124544 54 49 0.0 0.0 0.00 0.00 0.00 77 1007.8
20260507123043 56 49 0.0 0.0 0.00 0.00 0.00 74 1007.7
20260507121542 57 47 0.0 0.0 0.00 0.00 0.00 71 1007.7
20260507120041 57 45 0.0 2.0 0.00 0.00 0.00 68 1007.7
20260507114540 58 5 0.0 3.0 0.00 0.00 0.00 67 1007.7
20260507113040 56 331 1.0 3.0 0.00 0.00 0.00 70 1007.9
20260507111541 57 329 0.0 4.0 0.00 0.00 0.00 69 1008.0
20260507110035 58 326 0.0 3.0 0.00 0.00 0.00 68 1008.0
20260507104535 58 46 1.0 3.0 0.00 0.00 0.00 69 1008.1
20260507103030 58 47 2.0 4.0 0.00 0.00 0.00 70 1008.2
20260507101544 58 43 1.0 4.0 0.00 0.00 0.00 72 1008.3
20260507100033 58 48 2.0 4.0 0.00 0.00 0.00 72 1008.4
20260507094525 58 11 2.0 4.0 0.00 0.00 0.00 74 1008.4
20260507093028 56 19 2.0 4.0 0.00 0.00 0.00 77 1008.5
20260507091544 56 46 1.0 3.0 0.00 0.00 0.00 80 1008.7
20260507090018 55 49 1.0 3.0 0.00 0.00 0.00 82 1008.8
20260507084517 54 53 0.0 2.0 0.00 0.00 0.00 83 1009.1
20260507083016 55 48 0.0 2.0 0.00 0.00 0.00 82 1009.2
20260507081511 55 48 0.0 1.0 0.00 0.00 0.00 81 1009.3
20260507080008 56 49 0.0 1.0 0.00 0.00 0.00 79 1009.4
20260507074510 57 49 0.0 3.0 0.00 0.00 0.00 78 1009.5
20260507073005 57 48 1.0 4.0 0.00 0.00 0.00 78 1009.3
20260507071507 57 47 1.0 3.0 0.00 0.00 0.00 79 1009.3
20260507070002 57 51 1.0 3.0 0.00 0.00 0.00 78 1009.3
20260507064603 58 52 1.0 3.0 0.00 0.00 0.00 78 1009.4
20260507063103 58 53 1.0 2.0 0.00 0.00 0.00 78 1009.4
20260507061559 58 54 0.0 5.0 0.00 0.00 0.00 79 1009.3
20260507060058 56 171 0.0 2.0 0.00 0.00 0.00 80 1009.4
20260507054617 57 171 1.0 2.0 0.00 0.00 0.00 80 1009.4
20260507053057 57 171 0.0 2.0 0.00 0.00 0.00 79 1009.4
20260507051557 57 171 1.0 2.0 0.00 0.00 0.00 80 1009.4
20260507044601 57 171 0.0 2.0 0.00 0.00 0.00 77 1009.3
20260507043055 58 173 1.0 3.0 0.00 0.00 0.00 76 1009.2
20260507041555 58 174 1.0 3.0 0.00 0.00 0.00 74 1009.1
20260507040054 59 174 0.0 1.0 0.00 0.00 0.00 73 1009.0
20260507034553 60 174 0.0 2.0 0.00 0.00 0.00 71 1008.8
20260507033053 61 174 1.0 3.0 0.00 0.00 0.00 69 1008.7
20260507031553 63 175 0.0 2.0 0.00 0.00 0.00 64 1008.6
20260507030100 65 175 0.0 0.0 0.00 0.00 0.00 61 1008.4
20260507024552 66 175 0.0 3.0 0.00 0.00 0.00 60 1008.3
20260507023051 66 175 0.0 4.0 0.00 0.00 0.00 59 1008.2
20260507021607 67 176 3.0 6.0 0.00 0.00 0.00 57 1008.0
20260507020056 69 194 1.0 5.0 0.00 0.00 0.00 55 1007.8
20260507014609 69 175 1.0 5.0 0.00 0.00 0.00 54 1007.7
20260507013052 70 176 2.0 5.0 0.00 0.00 0.00 53 1007.7
20260507011546 71 175 1.0 6.0 0.00 0.00 0.00 51 1007.6
20260507010059 71 173 3.0 5.0 0.00 0.00 0.00 51 1007.5
20260507004547 72 175 0.0 6.0 0.00 0.00 0.00 50 1007.5